Regional Weather Roundup
Issued by NWS

Home | Current Version | Previous Version | Text Only | Print | Product List | Glossary On
Versions: 1 2 3 4 5 6 7 8 9 10 11 12 13 14 15 16 17 18 19 20 21 22 23 24 25 26 27
000
ASUS44 KLIX 301211
RWRLA
LOUISIANA WEATHER ROUNDUP
NATIONAL WEATHER SERVICE NEW ORLEANS LA
700 AM CDT FRI SEP 30 2016

NOTE: "FAIR" INDICATES FEW OR NO CLOUDS BELOW 12,000 FEET WITH NO
      SIGNIFICANT WEATHER AND/OR OBSTRUCTIONS TO VISIBILITY.
      SKY/WX - SKY CONDITION AND SIGNIFICANT WEATHER.
      TMP - AIR TEMPERATURE.    DP   - DEWPOINT TEMPERATURE.
      RH  - RELATIVE HUMIDITY.  PRES - PRESSURE.
      HX  - HEAT INDEX.         WCI  - WIND CHILL INDEX.

*  THESE STATIONS ARE NOT NWS OR FAA STATIONS AND ARE NOT UNDER
   NWS QUALITY CONTROL.

LAZ040-048-061>063-065-066-069-301300-
SOUTHEAST LOUISIANA

CITY           SKY/WX    TMP DP  RH WIND       PRES   REMARKS
N.O. AUDUBON   NOT AVBL
N.O. INTL ARPT PTCLDY    71  57  61 NE10      30.09R
6HR MIN TEMP:  71; 6HR MAX TEMP:  74;

N.O. LAKEFRONT CLEAR     70  57  63 NE17      30.10R
6HR MIN TEMP:  70; 6HR MAX TEMP:  74;

N.O. DOWNTOWN*   N/A     69  55  60 VRB3      30.10R
6HR MIN TEMP:  69; 6HR MAX TEMP:  74;

RESERVE*       FAIR      60  58  92 CALM      30.11R
6HR MIN TEMP:  60; 6HR MAX TEMP:  65;

SLIDELL        CLEAR     53  52  96 CALM      30.10R
6HR MIN TEMP:  53; 6HR MAX TEMP:  59;

BATON ROUGE    CLEAR     56  53  90 N5        30.11R
6HR MIN TEMP:  56; 6HR MAX TEMP:  61;

BOOTHVILLE     CLEAR     75  58  55 NE6       30.07R
6HR MIN TEMP:  75; 6HR MAX TEMP:  77;

BELLE CHASSE   CLEAR     63  57  81 NE6       30.09R
6HR MIN TEMP:  59; 6HR MAX TEMP:  70;

BOGALUSA*      FAIR      53  50  90 CALM      30.13R
6HR MIN TEMP:  52; 6HR MAX TEMP:  58;

GALLIANO*      MOSUNNY   68  57  68 NE3       30.08R
6HR MIN TEMP:  67; 6HR MAX TEMP:  73;

NEW ROADS*     FAIR      55  52  90 MISG      30.12S
6HR MIN TEMP:  54; 6HR MAX TEMP:  58;

GONZALES*      FAIR      57  53  86 CALM      30.11R
6HR MIN TEMP:  57; 6HR MAX TEMP:  63;

HAMMOND*       CLEAR     54  50  87 CALM      30.11S
HOUMA*         CLEAR     59  57  94 N5        30.09R
PORT FOURCHON* PTSUNNY   72  63  73 N12       30.07R

$$

LAZ041-044-053-054-301300-
SOUTHWEST LOUISIANA

CITY           SKY/WX    TMP DP  RH WIND       PRES   REMARKS
LAKE CHARLES   CLEAR     58  53  84 N3        30.13R
6HR MIN TEMP:  58; 6HR MAX TEMP:  64;

LAFAYETTE      CLEAR     58  55  90 N5        30.12R
6HR MIN TEMP:  58; 6HR MAX TEMP:  63;

PATTERSON      CLEAR     60  56  86 N5        30.11R
6HR MIN TEMP:  59; 6HR MAX TEMP:  63;

SALT POINT     NOT AVBL
NEW IBERIA     CLEAR     57  52  83 N6        30.12R
6HR MIN TEMP:  57; 6HR MAX TEMP:  60;

CHENAULT AIRPK NOT AVBL

$$

LAZ027-028-301300-
CENTRAL LOUISIANA

CITY           SKY/WX    TMP DP  RH WIND       PRES   REMARKS
FORT POLK      CLEAR     53  52  95 NW5       30.15R
6HR MIN TEMP:  53; 6HR MAX TEMP:  59;

ALEXANDRIA INT CLEAR     53  52  96 NW5       30.13R
6HR MIN TEMP:  52; 6HR MAX TEMP:  57;

ALEXANDRIA     CLEAR     51  51 100 CALM      30.14R
6HR MIN TEMP:  51; 6HR MAX TEMP:  60;


$$

LAZ001-002-301300-
NORTHWEST LOUISIANA

CITY           SKY/WX    TMP DP  RH WIND       PRES   REMARKS
SHREVEPORT     PTCLDY    56  53  90 W3        30.17R
6HR MIN TEMP:  56; 6HR MAX TEMP:  59;

BARKSDALE AFB  CLEAR     54  52  95 N3        30.17R
6HR MIN TEMP:  54; 6HR MAX TEMP:  58;

DTN SHREVEPORT CLEAR     57  53  86 NW3       30.17R
6HR MIN TEMP:  56; 6HR MAX TEMP:  61;


$$

LAZ014-016-301300-
NORTHEAST LOUISIANA

CITY           SKY/WX    TMP DP  RH WIND       PRES   REMARKS
MONROE         PTCLDY    56  53  90 CALM      30.15R
6HR MIN TEMP:  55; 6HR MAX TEMP:  60;

TALLULAH       PTCLDY    49  48  97 CALM      30.13S
6HR MIN TEMP:  48; 6HR MAX TEMP:  52;


$$





USA.gov is the U.S. government's official web portal to all federal, state and local government web resources and services.